Wind_Speed
39 46 44 44 39 31 27 34 33 35 24 27 24 32 27 27 25 25 23 22 24 23 20 23 25 26 27 27 27 25 24 23 22 20 20 19 17 18 19 19 19 19 19 18
36 42 46 39 31 31 30 27 32 31 33 22 34 30 33 32 32 28 25 24 25 25 23 26 26 27 27 26 26 27 25 25 23 22 22 22 23 22 22 21 21 21 19 18
38 23 35 32 35 35 34 33 32 33 27 26 35 39 39 40 36 35 30 28 27 24 24 26 26 27 26 27 27 27 24 25 26 24 25 25 26 24 24 22 23 21 19 20
29 35 23 39 33 35 38 34 30 29 22 16 23 14 42 44 43 43 39 34 29 27 26 27 26 26 25 24 24 26 27 27 28 28 28 28 26 26 24 24 23 23 22 22
32 30 33 20 41 32 29 30 29 29 15 20 26 16 43 42 47 49 43 39 35 29 29 29 27 25 24 25 26 27 27 28 28 29 30 30 27 27 26 26 25 24 23 23
30 28 27 37 27 24 29 18 20 10 13 10 27 24 25 47 51 46 43 42 38 33 30 30 28 27 26 27 27 28 28 29 30 31 31 31 30 29 28 28 27 26 24 24
33 25 33 27 30 24 29 26 6 3 3 9 4 22 47 17 34 35 42 41 40 34 33 30 28 27 26 25 25 28 29 31 32 33 33 33 33 32 31 30 29 29 26 26
26 17 36 30 31 32 33 29 10 5 4 4 10 21 25 30 33 7 20 35 40 39 35 34 32 31 30 29 31 31 32 32 33 33 33 34 34 34 33 32 32 32 28 25
25 22 21 28 32 28 32 28 20 5 7 4 10 23 39 11 18 31 34 19 27 43 42 38 35 35 35 35 35 35 36 34 33 33 34 35 34 35 35 35 35 34 29 26
18 12 17 27 32 34 26 28 19 12 4 5 7 15 25 8 17 32 25 21 33 20 32 38 42 40 38 37 38 40 39 38 38 37 37 37 36 36 39 40 37 36 28 26
14 13 12 27 35 39 35 26 20 16 9 4 2 9 10 8 8 13 14 26 19 30 37 39 32 34 41 45 45 42 41 41 40 40 40 39 38 38 41 43 39 35 28 26
27 15 16 31 23 35 38 40 42 18 10 20 5 27 7 7 9 11 12 13 19 25 30 33 38 45 47 41 40 40 41 41 41 41 40 40 40 40 41 41 35 31 28 27
34 13 13 12 13 21 31 35 37 31 17 23 9 34 35 29 8 9 13 9 10 9 16 28 31 35 37 34 32 36 38 38 38 39 39 39 39 40 39 35 34 30 29 29
36 19 23 24 18 23 35 37 39 38 22 35 39 59 42 29 25 27 21 18 18 17 15 17 19 21 28 31 32 31 32 34 33 34 36 37 37 36 33 34 30 30 29 29
32 30 23 19 19 11 15 28 34 40 45 30 50 52 50 51 40 26 31 23 23 23 19 11 7 9 15 20 25 30 33 36 37 37 37 37 36 34 31 31 30 30 29 29
38 18 32 24 18 20 21 19 23 34 39 44 47 45 36 35 34 34 38 44 37 34 30 22 27 24 18 19 18 21 26 30 33 34 35 33 33 31 30 30 29 29 30 31
38 38 27 28 19 12 19 36 30 32 33 37 46 37 34 34 32 27 25 25 34 34 30 26 27 24 20 21 18 17 19 24 27 28 30 30 30 29 28 28 30 32 32 32
41 40 31 10 14 8 35 27 30 34 34 36 41 41 37 35 33 34 34 30 31 30 30 31 26 21 20 22 20 21 20 20 23 26 27 27 28 28 29 31 32 34 33 32
39 39 32 20 24 20 30 28 25 26 39 37 41 39 38 39 39 38 31 26 17 18 20 22 23 26 30 30 29 28 27 27 25 24 26 27 28 29 31 32 34 35 35 34
33 36 35 30 18 12 9 31 22 18 46 32 34 35 35 36 37 36 29 26 22 22 22 19 18 23 26 26 28 30 29 29 28 26 25 26 29 31 32 34 35 35 36 37
34 36 45 29 25 22 24 9 13 24 22 8 3 3 12 12 16 20 22 24 25 26 28 32 34 33 32 30 27 27 29 32 27 27 27 28 30 31 34 36 37 38 39 39
36 28 30 35 32 23 8 17 30 36 23 14 23 27 21 17 10 2 4 6 8 11 17 22 27 33 35 35 35 34 34 35 34 31 30 30 31 34 36 38 40 41 41 41
33 40 34 34 26 7 30 28 23 18 25 28 20 15 11 14 11 8 9 15 20 20 21 22 21 22 22 23 26 28 31 34 37 35 32 32 33 36 38 40 41 41 42 43
37 42 38 33 34 37 33 19 12 13 19 20 22 23 21 18 16 17 17 22 23 28 32 24 22 22 22 22 22 24 24 27 32 36 39 40 39 39 40 41 42 43 44 44
40 37 40 41 34 22 28 30 29 24 24 24 25 26 22 21 22 22 27 31 30 28 23 22 24 24 23 25 26 25 26 29 30 32 34 36 39 41 42 42 43 43 44 47
35 34 34 37 35 36 30 25 23 24 27 28 28 27 29 29 29 30 35 33 32 32 27 27 29 28 28 30 30 26 24 27 28 31 35 37 38 40 41 42 43 45 48 50
Wind_Direction
199 203 211 216 215 215 227 231 229 236 230 233 250 250 244 240 236 235 237 231 227 224 222 221 222 222 222 221 220 221 222 225 226 230 237 242 246 247 249 253 256 260 264 269
198 212 213 212 216 222 222 231 237 240 238 244 242 251 239 238 239 238 235 239 238 232 226 226 228 230 232 232 233 231 229 232 233 232 237 242 245 245 247 252 256 259 264 271
210 209 214 214 221 219 230 234 235 235 239 250 250 253 243 234 234 237 235 234 234 234 228 229 231 236 239 240 241 244 241 240 240 238 239 243 246 248 250 253 256 263 270 275
208 216 218 219 220 221 218 228 228 231 226 253 243 267 247 243 237 233 234 235 235 233 232 228 227 230 234 239 242 242 241 241 242 241 241 243 247 252 253 255 259 266 269 272
210 218 214 212 222 226 219 228 226 230 228 255 244 244 255 243 241 235 231 233 235 236 237 236 239 239 240 240 239 240 239 240 240 242 243 246 246 250 254 258 261 262 266 273
217 221 225 231 230 223 231 209 200 181 224 253 237 223 253 246 244 242 241 235 236 236 238 240 238 240 238 239 243 243 242 242 242 243 246 249 251 254 256 260 263 265 268 270
216 214 220 212 211 211 218 204 136 148 192 236 197 218 240 257 251 248 245 241 239 240 238 238 238 241 244 250 252 250 246 243 244 244 246 249 253 256 258 260 262 265 265 268
196 200 217 208 211 207 203 204 189 175 207 262 184 225 251 248 238 230 240 237 236 236 236 239 242 245 247 250 250 249 248 244 243 244 246 248 249 253 258 259 262 264 267 266
187 202 202 214 210 202 200 209 201 161 265 277 224 252 253 254 241 247 238 244 239 240 242 243 247 246 249 249 249 250 250 247 246 245 245 248 251 256 262 263 264 265 264 263
198 178 195 193 198 206 218 205 195 196 199 250 265 252 240 257 253 249 249 260 242 248 240 242 246 248 250 251 252 250 250 250 250 250 249 249 251 254 259 261 261 263 259 256
190 187 171 189 199 205 200 194 205 201 214 187 282 256 266 271 260 241 249 239 246 245 245 250 252 249 250 255 254 252 250 250 253 254 254 254 255 254 254 257 259 259 253 248
191 180 155 191 203 220 224 218 212 200 204 222 262 259 223 202 233 235 232 232 250 242 251 254 252 253 255 262 256 253 252 251 253 256 258 257 255 253 253 253 255 250 245 238
184 179 118 169 206 204 221 222 229 211 217 224 213 258 262 247 221 266 249 266 277 263 272 268 267 264 256 259 259 255 253 252 254 257 258 255 253 252 253 249 249 242 236 229
198 196 200 195 208 208 211 218 224 221 223 230 226 255 242 235 234 233 245 253 259 272 316 315 268 274 266 264 261 261 257 257 253 256 256 252 249 249 249 246 240 235 228 224
199 209 205 220 231 235 233 225 222 216 234 215 252 253 263 257 246 240 254 252 278 282 289 306 321 303 289 267 259 255 255 255 254 252 248 248 247 245 241 239 233 229 224 226
201 211 220 219 222 231 238 241 239 243 243 244 257 267 267 272 278 274 267 254 271 274 280 272 279 289 288 286 272 263 259 255 252 251 250 245 244 241 238 236 231 226 228 232
204 212 215 225 228 231 239 238 239 249 252 257 252 262 269 276 284 293 297 282 258 250 260 270 275 278 271 261 258 264 261 253 250 247 248 247 243 240 236 232 230 231 234 238
214 211 212 209 199 207 243 247 244 249 256 255 260 267 276 281 287 286 288 291 264 255 274 280 270 263 260 254 259 265 267 266 257 248 244 242 239 237 235 234 236 238 241 244
220 212 209 209 208 243 237 228 233 242 259 257 263 272 275 279 280 270 269 280 279 265 266 261 258 257 255 256 260 265 265 262 260 257 250 242 240 241 241 242 242 244 246 249
216 218 207 207 212 224 243 233 238 238 266 272 268 273 274 268 264 268 266 265 263 267 273 270 257 251 246 246 248 253 257 260 260 260 259 252 247 244 245 245 246 248 250 252
202 209 212 216 220 240 237 212 199 212 251 273 242 274 323 306 283 271 261 261 258 258 261 266 267 270 269 266 265 266 262 259 265 261 255 252 251 250 249 248 249 250 252 254
195 193 211 219 232 250 235 228 236 257 249 228 272 285 282 289 282 257 214 236 249 266 269 266 266 265 267 265 265 266 265 260 258 257 256 254 253 253 252 251 252 253 256 258
201 207 205 213 228 230 231 250 260 262 253 258 265 280 266 286 274 266 294 314 302 284 294 291 277 274 274 273 272 270 266 263 259 258 256 254 254 254 254 254 254 256 258 258
207 215 218 224 232 235 238 223 235 251 253 253 253 260 268 268 267 282 291 306 298 295 298 293 288 279 278 273 273 272 274 273 266 262 260 256 251 250 251 253 254 254 255 256
210 210 217 226 232 234 244 253 255 252 245 252 257 258 262 265 275 278 291 303 297 302 291 283 289 283 285 287 288 288 279 274 273 272 268 262 258 254 251 250 252 253 254 253
212 217 222 229 235 239 245 249 254 255 254 255 259 264 273 276 274 279 292 291 293 301 293 283 294 293 288 290 289 294 290 284 277 273 270 266 261 256 252 250 250 252 251 249
Height
3107 3110 3109 3118 3125 3131 3136 3142 3144 3147 3152 3154 3157 3157 3162 3163 3164 3165 3166 3168 3171 3174 3178 3180 3182 3185 3186 3187 3189 3192 3194 3197 3198 3199 3201 3202 3203 3204 3205 3205 3205 3206 3206 3206
3104 3105 3111 3117 3124 3130 3133 3137 3142 3146 3150 3150 3151 3150 3154 3155 3158 3159 3161 3163 3168 3169 3172 3175 3178 3181 3182 3185 3187 3188 3190 3192 3194 3195 3197 3198 3199 3200 3200 3200 3201 3201 3201 3202
3098 3104 3109 3114 3121 3125 3128 3133 3138 3144 3146 3145 3147 3142 3143 3146 3148 3152 3154 3158 3161 3164 3167 3169 3172 3175 3178 3180 3182 3184 3187 3188 3190 3191 3192 3193 3193 3194 3195 3196 3196 3197 3198 3198
3099 3101 3105 3112 3116 3122 3124 3131 3138 3139 3141 3142 3143 3135 3131 3139 3139 3141 3147 3151 3156 3159 3162 3164 3166 3169 3172 3175 3177 3179 3180 3182 3185 3186 3186 3187 3189 3190 3192 3192 3192 3192 3193 3194
3090 3095 3100 3106 3111 3121 3124 3128 3132 3135 3135 3140 3134 3138 3120 3130 3127 3131 3138 3143 3149 3154 3157 3160 3161 3164 3167 3169 3171 3173 3174 3176 3178 3180 3181 3183 3184 3185 3185 3186 3186 3187 3187 3187
3090 3095 3100 3104 3113 3119 3120 3122 3127 3132 3135 3135 3124 3130 3110 3116 3118 3126 3133 3137 3142 3147 3150 3154 3157 3158 3161 3162 3165 3167 3169 3170 3172 3174 3175 3176 3178 3179 3180 3181 3181 3181 3182 3182
3081 3087 3092 3099 3106 3114 3114 3117 3126 3133 3136 3122 3120 3124 3097 3111 3113 3117 3125 3131 3136 3140 3144 3148 3151 3153 3156 3157 3159 3161 3163 3164 3166 3167 3169 3170 3171 3172 3173 3174 3175 3175 3176 3177
3073 3084 3084 3090 3095 3101 3107 3114 3118 3125 3128 3119 3118 3107 3090 3100 3111 3113 3116 3122 3126 3131 3136 3140 3144 3146 3148 3150 3151 3153 3156 3158 3159 3161 3163 3164 3165 3165 3166 3168 3168 3168 3169 3170
3067 3076 3078 3086 3092 3102 3107 3108 3117 3120 3120 3118 3106 3100 3096 3096 3100 3106 3111 3115 3118 3123 3128 3133 3136 3138 3141 3142 3144 3145 3148 3151 3153 3154 3155 3157 3158 3158 3159 3159 3160 3161 3162 3164
3061 3072 3076 3085 3088 3095 3097 3108 3112 3112 3116 3116 3098 3096 3092 3093 3099 3103 3104 3108 3114 3117 3120 3124 3127 3130 3132 3133 3135 3137 3139 3142 3145 3146 3147 3149 3150 3151 3151 3151 3152 3154 3156 3157
3059 3062 3073 3078 3078 3081 3094 3096 3102 3106 3107 3104 3105 3091 3090 3092 3094 3095 3099 3103 3107 3112 3114 3115 3117 3120 3122 3124 3125 3128 3130 3132 3135 3136 3137 3139 3141 3142 3142 3142 3143 3146 3148 3150
3056 3061 3068 3070 3075 3080 3084 3083 3088 3094 3098 3098 3097 3083 3089 3089 3090 3091 3097 3100 3102 3103 3106 3107 3107 3109 3112 3114 3115 3118 3120 3122 3125 3126 3128 3129 3130 3132 3132 3133 3136 3138 3140 3142
3050 3057 3064 3074 3078 3076 3073 3079 3084 3089 3090 3091 3100 3073 3082 3090 3088 3090 3093 3093 3096 3096 3098 3097 3098 3100 3103 3105 3106 3108 3112 3113 3115 3117 3117 3118 3120 3122 3123 3125 3128 3130 3133 3135
3048 3049 3049 3049 3052 3060 3066 3069 3077 3084 3086 3078 3080 3059 3073 3082 3083 3084 3084 3086 3087 3088 3090 3088 3089 3092 3095 3096 3097 3101 3103 3106 3106 3108 3108 3109 3110 3113 3115 3119 3120 3123 3125 3129
3045 3043 3045 3048 3053 3057 3059 3062 3067 3072 3066 3076 3054 3065 3065 3072 3079 3080 3078 3078 3079 3082 3084 3083 3084 3085 3087 3088 3089 3092 3094 3096 3097 3097 3098 3100 3102 3104 3106 3110 3114 3116 3119 3122
3039 3038 3042 3046 3050 3054 3056 3057 3057 3059 3063 3063 3056 3055 3059 3064 3069 3071 3073 3075 3074 3074 3077 3077 3078 3080 3082 3082 3083 3084 3085 3087 3088 3088 3091 3093 3095 3097 3099 3103 3109 3111 3113 3115
3027 3030 3038 3042 3049 3053 3053 3044 3049 3050 3053 3053 3052 3039 3053 3060 3065 3065 3067 3066 3066 3069 3072 3073 3073 3074 3075 3076 3077 3078 3078 3078 3080 3080 3084 3085 3088 3092 3093 3097 3102 3104 3106 3108
3018 3026 3035 3040 3045 3048 3029 3036 3039 3039 3042 3046 3043 3041 3047 3054 3057 3059 3059 3058 3057 3060 3063 3065 3066 3067 3069 3069 3070 3071 3072 3073 3073 3074 3076 3079 3082 3085 3087 3090 3095 3099 3100 3101
3015 3023 3030 3034 3037 3032 3025 3027 3031 3033 3031 3039 3037 3039 3042 3048 3051 3049 3051 3053 3053 3054 3053 3056 3058 3059 3059 3061 3062 3063 3065 3065 3066 3068 3070 3073 3075 3077 3080 3084 3088 3091 3092 3093
3012 3020 3026 3026 3028 3023 3018 3021 3028 3033 3020 3035 3036 3035 3036 3042 3039 3037 3043 3046 3049 3047 3046 3049 3050 3050 3051 3053 3054 3055 3056 3057 3059 3062 3065 3067 3068 3070 3073 3076 3079 3082 3083 3084
3005 3012 3013 3017 3017 3012 3013 3019 3026 3031 3029 3031 3030 3031 3033 3034 3032 3031 3033 3035 3038 3036 3038 3042 3043 3044 3045 3045 3046 3046 3048 3049 3053 3054 3056 3058 3060 3062 3065 3067 3069 3071 3072 3074
2993 3002 3006 3012 3011 3009 3011 3016 3022 3022 3026 3026 3028 3029 3031 3033 3031 3030 3029 3029 3030 3028 3033 3035 3035 3036 3035 3037 3038 3039 3040 3042 3043 3044 3047 3048 3050 3053 3054 3056 3058 3060 3062 3064
2988 2989 2994 3001 2999 3003 3007 3010 3013 3016 3019 3022 3024 3025 3027 3028 3028 3027 3025 3026 3025 3025 3028 3030 3029 3028 3028 3029 3029 3029 3030 3030 3032 3034 3036 3038 3039 3041 3043 3045 3048 3050 3052 3053
2979 2984 2989 2995 2996 3001 3005 3008 3010 3012 3015 3017 3018 3020 3020 3021 3021 3020 3020 3021 3022 3022 3022 3023 3023 3022 3022 3021 3021 3021 3021 3022 3023 3023 3025 3026 3028 3030 3032 3034 3037 3038 3040 3041
2974 2978 2981 2985 2990 2995 2999 3003 3006 3007 3009 3010 3012 3013 3014 3015 3015 3014 3014 3014 3015 3017 3017 3017 3016 3015 3015 3014 3014 3013 3013 3013 3014 3014 3015 3016 3017 3018 3020 3022 3024 3027 3029 3029
2969 2970 2974 2978 2985 2989 2994 2998 3000 3002 3003 3004 3005 3006 3007 3008 3008 3009 3008 3008 3008 3009 3010 3009 3007 3006 3006 3006 3005 3005 3005 3004 3004 3005 3005 3005 3006 3006 3008 3010 3013 3014 3015 3014